Theta_e
336 338 341 340 343 342 342 343 343 342 341 341 339 338 339 339 338 338 338 338 338 340 338 337 337 338 338 340 340 341 341 337 334 333 333 334 332 332 337 337 335 335 335 334 334 328 325 323 324 332 334 333 334 334 332 332 332 334 336 336 335 335 337
337 336 337 339 339 342 341 342 343 342 341 340 339 339 339 340 338 337 338 338 338 339 338 337 337 336 338 337 339 339 340 341 340 339 335 336 335 332 333 335 335 333 333 334 334 334 327 324 322 324 327 332 333 333 335 333 333 334 335 335 336 335 336
337 337 338 337 338 338 339 341 343 343 341 339 339 339 339 338 338 336 337 337 338 339 338 338 337 336 335 336 336 337 339 338 336 335 333 335 336 335 334 334 330 329 329 330 332 331 331 331 324 322 325 328 324 328 332 332 332 333 334 336 336 335 336
337 337 335 336 336 338 338 340 340 341 342 340 340 339 339 339 339 338 338 338 339 338 337 337 337 335 336 338 338 337 336 336 335 335 334 335 336 335 334 334 330 329 329 329 330 331 330 327 326 325 327 327 322 325 331 335 334 332 332 334 334 335 336
338 335 335 335 336 337 338 338 339 339 340 340 339 338 339 339 338 338 338 338 340 340 339 339 338 337 338 337 336 336 335 334 335 334 333 330 334 334 333 334 333 332 332 330 329 330 329 328 327 325 325 326 326 326 328 330 332 331 331 331 333 334 334
339 339 338 338 339 337 337 338 337 336 337 336 338 338 338 340 338 337 337 337 339 340 339 340 338 335 336 336 335 335 334 333 334 334 333 331 332 329 332 334 332 333 332 333 332 331 332 332 329 325 325 327 324 325 327 329 329 331 331 331 333 333 333
338 338 338 337 338 338 338 337 337 336 336 336 337 338 338 339 339 339 339 339 340 341 340 337 333 335 337 335 334 334 333 335 336 333 333 335 337 336 337 336 335 334 333 334 333 333 333 332 328 326 326 326 327 323 326 326 327 326 329 332 333 333 333
336 336 335 336 336 337 339 338 338 337 336 337 337 339 337 338 339 339 340 341 340 340 338 335 334 333 334 334 333 334 334 334 334 334 335 335 334 335 334 334 335 334 334 337 334 334 334 333 331 329 327 324 324 325 323 324 326 327 326 331 333 332 333
335 335 334 334 334 336 338 339 338 339 338 338 340 339 338 338 337 337 338 339 339 340 338 335 335 335 337 335 333 331 331 332 335 333 335 334 331 331 337 335 334 333 334 334 335 336 334 334 334 333 330 328 323 320 324 322 324 324 330 327 330 332 332
334 333 333 333 334 335 336 337 338 339 341 340 338 339 338 338 337 337 337 337 339 340 336 333 334 334 336 334 332 332 334 333 333 335 333 330 333 336 333 336 335 334 337 338 337 337 337 336 335 334 332 329 326 321 320 320 323 321 324 327 324 329 332
332 333 334 333 335 334 335 334 337 337 339 340 339 338 337 337 337 337 336 336 338 339 338 336 334 334 334 334 333 336 337 337 335 335 334 333 334 334 334 333 332 330 335 337 337 339 338 337 335 335 333 331 329 324 323 320 320 325 327 329 328 326 330
332 332 333 334 334 333 333 334 334 337 339 339 338 337 335 334 336 336 336 336 336 338 339 336 332 331 335 336 336 336 336 335 334 334 332 333 336 335 331 330 332 334 336 338 339 339 339 338 336 335 334 334 331 330 327 324 319 324 328 325 327 329 329
331 332 333 333 333 333 334 334 335 336 338 338 339 337 335 334 335 335 335 335 335 335 336 336 334 333 335 335 335 335 335 334 334 333 333 336 335 334 332 330 332 334 338 338 338 338 337 338 337 334 334 334 333 333 331 326 321 321 329 331 328 328 330
331 332 333 333 333 333 334 334 334 336 337 337 337 336 334 333 334 335 335 334 335 335 336 336 335 335 334 334 335 335 334 333 332 332 332 332 332 333 333 331 333 336 339 337 336 337 336 335 336 336 334 334 332 334 332 329 324 323 329 332 328 326 329
331 332 332 333 332 332 333 334 333 333 333 334 336 336 335 335 335 337 336 335 336 336 336 335 334 334 333 332 334 334 334 333 333 332 333 332 331 333 331 332 331 336 338 336 336 334 334 334 334 334 332 332 330 332 334 328 327 325 324 330 327 328 326
329 330 331 331 332 332 332 332 333 332 332 332 334 335 335 336 337 335 335 336 334 335 335 334 334 334 333 333 332 333 332 332 332 333 333 333 330 331 332 334 332 334 336 337 336 334 333 333 333 332 332 331 329 330 330 329 326 324 323 323 326 323 325
328 329 329 330 331 332 334 333 333 331 330 333 332 334 335 336 337 336 336 334 335 335 335 335 334 333 333 333 332 332 332 332 332 333 334 333 331 331 332 333 334 335 335 334 331 333 331 333 333 331 331 331 329 328 332 331 328 326 321 321 323 321 322
326 328 329 329 330 330 332 332 333 332 332 331 332 332 333 336 337 335 334 332 334 335 335 335 334 334 334 333 334 333 332 332 332 334 336 335 332 331 333 335 335 335 335 332 331 331 332 334 333 331 330 329 329 331 332 331 329 325 324 322 322 325 324
323 324 326 329 329 329 330 330 330 331 330 330 331 332 333 334 335 333 335 335 336 334 336 335 334 334 335 334 334 333 334 333 333 335 335 335 332 332 333 334 334 334 333 331 330 332 333 333 331 331 329 328 328 331 332 331 329 328 324 322 323 322 324
321 322 324 327 329 329 328 329 328 329 330 329 329 330 332 331 330 333 336 336 336 337 336 335 335 334 332 331 330 330 331 334 335 335 334 332 333 332 334 334 335 335 334 333 333 333 333 334 332 330 330 330 328 331 331 331 330 328 327 326 322 323 321
321 322 323 324 326 328 328 329 329 329 329 329 329 329 330 331 332 334 334 335 336 337 336 335 334 332 331 330 331 332 333 335 335 333 331 331 332 334 335 334 334 334 335 334 334 335 335 333 333 333 332 331 331 330 330 330 329 327 325 326 323 320 320
320 322 324 325 325 326 327 328 329 329 329 330 331 330 331 330 328 330 333 335 335 337 335 332 336 332 332 332 330 329 334 333 331 331 330 331 334 335 335 335 336 335 335 324 315 323 326 327 334 332 333 333 332 330 331 329 328 326 327 324 322 322 319
319 321 322 324 325 326 326 327 328 328 328 329 330 329 329 329 329 329 331 331 332 332 330 331 328 318 319 326 329 330 332 332 331 331 332 332 334 335 334 335 329 318 317 316 309 305 306 307 307 323 335 334 332 331 328 327 323 321 323 323 322 320 318
319 320 320 321 323 324 325 326 327 327 328 328 329 329 328 328 329 330 329 329 330 329 329 330 315 307 310 312 326 329 331 332 334 334 334 334 333 334 335 335 333 322 320 315 312 296 297 298 297 297 296 301 316 336 330 328 326 325 326 323 321 320 319
318 319 320 319 319 320 322 324 325 325 326 327 329 330 329 327 327 328 329 328 328 328 327 313 302 303 307 309 315 330 329 328 332 334 334 334 334 334 335 335 334 333 334 330 325 318 306 296 296 296 296 296 295 295 302 325 330 326 323 320 318 318 318
316 318 318 318 317 316 316 319 322 324 324 326 327 326 326 327 327 328 327 326 326 327 324 300 297 300 303 306 309 319 332 332 334 334 334 333 334 333 333 332 332 331 323 317 322 322 318 312 298 297 299 301 301 300 298 297 302 331 326 322 323 323 324
313 315 316 316 315 313 311 312 314 318 324 326 325 326 326 325 325 326 326 326 326 326 322 300 295 298 301 303 306 314 332 335 334 334 333 333 333 333 333 331 329 327 325 325 323 319 320 318 319 322 324 325 325 318 308 306 309 309 321 329 329 327 329
312 314 315 314 313 311 309 308 309 311 314 317 317 316 316 317 317 318 321 324 324 323 315 295 294 296 298 301 305 312 333 333 330 331 331 331 331 332 332 331 330 327 326 324 324 321 322 323 326 327 326 323 319 315 312 313 318 329 331 332 330 328 327
311 313 313 312 310 309 307 307 306 307 309 310 311 313 313 314 315 317 319 321 317 313 306 294 295 296 298 301 308 328 330 330 329 328 329 328 325 329 330 330 328 326 326 326 309 305 315 327 325 322 320 319 316 311 305 297 294 298 311 318 319 317 313
309 310 311 310 309 308 306 306 305 306 306 306 306 306 307 308 309 312 312 312 311 310 309 298 296 297 299 302 314 328 327 326 325 325 326 327 326 327 328 327 326 325 323 319 304 302 303 311 321 318 317 315 315 314 310 306 296 293 293 292 292 292 293
309 309 309 308 308 308 307 307 306 305 304 303 302 302 302 301 302 304 304 306 308 308 308 299 295 297 298 300 315 324 322 321 320 318 315 316 317 315 312 311 320 321 320 318 298 301 304 316 320 320 319 317 315 314 312 311 309 303 294 294 294 294 295
307 307 308 309 308 307 307 307 307 306 305 304 302 301 300 299 299 300 301 301 301 303 305 301 295 295 295 299 315 321 320 318 314 311 312 312 312 311 310 305 303 310 314 305 295 300 300 313 323 322 321 319 316 314 314 314 313 313 313 314 314 314 311
307 306 307 309 309 308 308 307 307 306 305 303 301 301 300 298 297 298 299 299 299 300 301 301 297 294 296 298 302 315 315 313 310 309 311 312 310 310 309 308 302 292 292 293 293 293 295 305 322 323 322 319 316 314 317 317 317 316 315 314 314 313 312
308 308 308 307 308 308 307 306 306 305 304 303 302 301 300 299 297 297 298 298 298 298 299 300 298 293 295 297 299 304 310 308 309 309 310 309 309 306 305 304 301 293 292 292 293 293 294 295 303 321 320 318 318 315 311 314 312 305 314 313 312 311 310
306 308 309 308 306 305 305 305 304 304 304 304 302 300 299 299 298 297 298 298 298 298 298 297 301 294 293 294 295 299 307 308 306 306 303 303 303 302 302 301 299 293 291 292 292 293 294 296 298 310 307 298 297 299 312 311 312 312 311 310 309 308 308
302 302 305 308 307 305 305 304 303 304 304 303 301 300 300 299 298 297 298 298 298 299 298 296 293 296 292 292 293 293 295 301 298 308 305 301 300 299 299 298 296 292 291 291 292 292 294 295 298 299 293 295 296 297 304 311 310 310 309 308 308 307 307
301 300 300 302 305 305 305 304 303 303 303 302 301 300 300 300 299 298 297 297 298 299 300 300 294 292 293 291 292 292 293 293 297 304 304 302 300 299 298 296 293 290 291 291 291 291 291 293 295 292 293 294 296 300 308 308 308 308 304 304 305 306 306
Wind_Speed
6 6 4 4 3 3 3 4 4 5 6 7 8 10 10 9 9 9 10 10 10 8 8 8 8 7 6 7 8 9 8 7 9 11 9 8 9 9 8 7 4 3 2 3 2 5 5 7 7 6 6 6 6 5 4 5 6 5 5 4 3 3 5
6 6 5 5 4 4 5 4 4 5 6 7 9 9 9 9 9 9 10 10 10 9 8 8 9 7 8 8 7 7 9 8 8 4 6 8 8 8 8 7 6 6 5 5 4 4 4 6 8 9 8 7 6 5 4 4 4 4 4 5 5 5 4
6 6 6 5 5 4 5 5 4 5 5 7 8 9 9 9 9 10 10 11 11 8 8 9 8 6 5 6 8 9 9 9 8 5 6 7 7 6 7 7 7 5 5 6 5 5 4 4 3 8 9 9 8 7 7 5 6 6 5 4 5 4 3
7 7 6 6 5 5 6 6 5 4 5 7 7 7 9 9 9 10 9 10 9 7 8 9 8 7 7 9 8 11 10 10 6 7 8 9 7 6 8 8 8 8 7 7 6 5 4 5 4 5 7 9 9 7 7 6 4 6 6 5 4 3 3
7 6 6 6 7 7 7 6 5 5 5 7 7 8 8 9 9 9 9 9 8 8 9 7 8 8 8 7 8 8 9 9 9 6 7 9 9 4 7 7 6 6 6 5 4 4 5 5 5 5 6 6 6 6 7 6 9 7 6 6 5 5 5
6 7 6 6 6 6 6 6 6 6 6 8 8 8 7 9 9 10 10 10 9 9 8 7 6 6 9 9 8 10 11 11 9 8 7 8 8 11 9 9 8 8 5 3 2 5 4 3 4 5 5 6 6 6 8 8 6 6 5 6 5 5 5
6 6 6 6 7 6 6 7 7 7 7 9 8 7 7 8 8 9 10 11 10 9 8 6 6 8 9 9 10 10 11 8 7 9 10 11 9 11 9 9 9 7 6 6 5 4 5 5 6 6 5 5 5 6 7 8 8 7 5 6 6 5 5
7 6 6 6 7 8 8 8 8 7 8 8 8 7 7 8 8 8 9 9 9 8 8 7 7 10 10 9 10 10 7 6 9 10 9 10 10 8 9 9 6 4 5 5 5 6 6 6 6 6 6 7 6 5 7 7 8 9 7 6 6 6 5
7 7 7 6 7 9 9 8 9 9 8 8 8 8 8 8 9 9 9 9 8 8 7 7 7 7 8 8 7 9 9 9 10 14 10 8 9 13 9 7 7 8 6 6 6 6 6 6 5 6 6 6 7 7 6 6 7 7 11 7 6 6 6
9 9 7 8 8 8 8 8 8 8 8 8 8 8 8 9 9 10 9 10 10 8 7 8 8 10 8 6 6 11 13 12 11 10 8 10 10 7 9 11 4 6 8 7 7 6 6 5 5 6 7 6 6 6 7 7 5 5 8 7 7 7 6
9 9 9 8 8 8 7 7 7 7 7 7 7 7 7 9 9 10 10 10 10 10 10 9 9 9 11 11 12 11 9 9 8 6 3 3 7 7 2 4 3 7 7 7 7 7 6 6 6 6 7 6 6 6 6 7 7 5 6 7 6 7 7
9 9 9 9 8 8 8 8 8 8 7 7 8 7 8 8 9 10 10 10 11 10 9 9 8 7 8 7 9 8 8 8 8 7 5 7 2 2 6 8 6 9 7 7 7 7 6 6 6 7 7 6 6 5 5 6 6 4 6 8 6 7 7
10 9 9 9 9 9 9 9 9 9 9 8 8 9 9 9 10 10 10 10 10 10 10 9 10 10 9 8 8 8 8 10 8 8 7 7 5 4 7 9 9 9 7 8 7 7 7 7 6 7 7 6 6 6 5 5 5 8 5 7 5 7 9
10 10 10 9 9 9 8 8 8 9 8 9 8 9 10 11 11 10 11 11 11 10 10 9 9 8 8 8 8 9 9 9 9 8 8 7 6 9 10 12 12 9 8 8 8 7 7 8 8 7 7 7 7 7 7 6 6 7 5 4 7 7 8
10 10 10 10 9 9 8 7 7 7 9 9 9 9 11 10 11 11 12 11 11 11 10 10 10 9 10 10 9 7 9 10 10 10 10 10 10 5 8 9 11 10 9 9 8 10 9 8 9 8 8 8 7 8 7 7 7 5 7 5 7 7 7
11 11 11 10 10 9 7 7 6 7 8 9 9 10 10 11 11 12 12 11 11 11 10 10 10 10 11 11 11 9 10 11 11 11 11 10 9 9 12 10 9 9 8 9 9 9 9 9 9 10 9 8 8 8 7 6 8 8 11 9 7 7 7
12 12 11 9 10 9 7 7 7 7 9 9 9 9 11 11 11 11 10 11 11 11 11 10 10 11 11 12 11 11 11 10 11 11 11 11 9 7 10 9 9 10 10 9 10 9 8 9 8 8 8 8 8 8 7 5 7 9 9 9 8 8 7
11 12 11 10 10 9 8 7 6 8 9 8 9 9 10 11 10 11 10 12 12 11 11 11 11 11 9 10 11 11 11 11 10 10 10 10 9 10 11 10 10 10 10 10 10 9 9 10 9 8 9 9 8 8 7 7 7 10 10 9 8 6 7
11 12 12 11 10 9 8 7 7 7 8 9 9 10 10 10 9 12 12 12 11 11 11 10 11 10 10 6 7 9 8 10 10 10 10 8 8 9 10 11 10 11 11 11 10 10 9 11 10 9 10 10 9 9 8 7 6 8 9 9 8 7 6
12 11 11 11 10 9 8 7 6 7 8 9 8 8 11 8 10 12 11 11 11 12 10 10 11 9 6 7 6 8 10 10 10 9 8 9 8 8 10 11 11 11 12 12 11 11 10 10 9 10 9 8 10 10 8 7 7 7 7 9 8 8 7
12 12 11 10 10 9 8 7 7 6 7 8 9 9 10 9 9 9 10 10 10 10 10 9 10 9 8 9 9 8 10 10 10 8 7 7 9 12 11 10 10 10 11 12 11 10 9 9 9 7 7 7 8 10 9 8 6 6 7 8 8 8 7
12 12 12 11 9 8 8 8 8 8 7 8 8 9 7 7 11 11 10 8 9 7 8 9 8 7 7 8 7 11 10 10 11 9 9 11 11 9 10 9 11 7 4 12 12 4 3 1 7 11 9 8 8 7 7 7 5 3 7 8 8 7 7
12 11 12 12 10 8 7 7 8 8 8 8 7 8 6 3 6 9 9 8 7 4 4 4 6 10 8 8 10 10 9 9 9 10 11 10 10 10 10 9 8 12 8 7 4 8 6 8 11 8 4 8 10 8 7 6 3 3 8 8 7 8 8
13 12 11 11 11 11 9 7 7 8 8 8 8 8 9 7 6 6 7 8 8 6 5 4 2 11 14 18 12 8 9 7 7 10 10 10 10 10 9 8 7 8 9 8 6 10 9 10 10 6 10 13 8 5 5 5 5 8 11 7 6 6 6
13 13 13 12 12 12 11 8 8 7 8 8 7 7 8 9 8 8 6 7 7 7 6 4 5 9 9 8 8 10 10 9 10 10 10 10 9 9 9 7 6 6 6 6 7 7 9 9 9 11 12 12 12 12 6 5 9 10 6 6 6 6 6
13 13 13 13 11 12 12 11 10 7 7 7 7 8 7 7 8 8 6 7 7 5 3 6 6 10 9 9 5 6 8 10 10 10 10 10 10 9 8 7 7 5 6 8 7 7 7 7 9 12 13 13 14 13 11 12 13 6 5 5 6 6 5
13 13 13 13 12 12 11 11 10 10 7 6 6 6 3 2 2 3 5 5 7 5 4 6 7 9 9 9 6 6 8 8 7 7 7 7 7 8 8 8 7 6 7 7 7 8 8 9 10 11 11 10 9 10 12 13 11 13 9 6 6 7 6
14 13 14 13 13 13 12 11 11 9 8 8 7 7 7 5 5 5 2 3 5 4 2 5 6 8 9 9 6 6 6 5 6 6 6 6 4 5 6 6 7 8 9 9 7 10 11 11 11 10 11 10 10 10 10 10 9 6 8 8 9 9 8
13 13 13 13 13 14 13 12 11 10 8 8 8 7 7 7 6 5 5 3 4 3 3 2 4 5 10 10 9 6 6 6 6 6 7 8 6 3 4 6 8 9 11 9 8 8 9 10 10 12 11 10 11 11 11 10 11 13 12 9 9 9 7
13 13 13 13 14 13 13 12 11 9 9 10 10 9 8 8 7 8 8 8 8 6 5 2 6 1 6 11 8 7 8 7 6 7 6 7 8 6 5 8 9 10 10 9 7 11 14 14 11 10 11 8 8 10 10 9 13 16 18 18 17 15 14
13 13 13 13 13 12 12 10 10 9 10 10 9 8 6 9 9 8 10 10 8 8 5 6 9 6 5 8 2 8 7 8 7 7 7 7 8 8 11 13 11 11 7 8 10 4 6 13 12 10 11 11 9 10 9 8 8 9 13 14 14 13 13
13 13 13 12 12 12 12 11 9 9 9 10 10 7 7 10 8 10 10 11 17 12 7 8 12 10 10 8 6 7 8 8 8 7 6 7 7 7 8 11 13 10 10 7 9 4 5 4 12 11 11 11 10 11 9 9 9 10 8 9 9 9 10
12 12 12 12 12 12 11 10 11 10 10 10 9 10 9 10 13 11 9 10 11 10 10 10 12 13 11 12 12 10 9 9 9 8 7 7 8 8 9 8 10 13 12 11 11 9 9 4 9 9 8 9 10 11 9 9 8 8 8 8 9 9 10
12 12 12 11 10 10 10 10 10 10 10 10 9 8 12 12 14 13 11 9 10 12 10 10 10 14 15 16 16 14 9 9 8 8 8 7 8 8 8 7 6 10 11 13 12 13 13 15 11 7 7 7 7 9 9 9 9 8 10 10 9 8 8
10 10 11 11 11 10 10 10 9 10 10 10 12 13 14 12 13 11 9 12 13 11 11 16 7 16 18 18 17 16 10 8 8 11 11 9 9 8 7 6 6 8 12 14 14 15 16 15 15 10 12 15 15 13 10 10 8 8 8 7 7 7 7
11 9 9 11 11 11 11 11 11 11 11 11 13 15 15 13 13 11 12 10 11 12 12 12 19 14 18 18 19 18 15 9 9 9 10 10 9 8 8 9 7 12 16 16 16 16 15 16 14 10 13 12 11 10 8 7 7 6 6 6 6 6 6
12 12 11 9 10 11 11 10 10 10 11 11 12 13 12 12 13 12 9 10 10 10 9 10 16 18 16 19 18 18 17 17 14 11 10 8 8 7 7 7 9 15 17 16 17 17 16 14 11 13 12 11 8 6 5 5 5 6 6 6 6 6 6
Wind_Direction
273 282 277 254 219 236 217 198 195 183 195 208 199 219 225 216 213 214 214 214 216 204 195 199 195 199 200 211 204 206 208 193 205 216 206 200 198 203 209 215 238 250 251 203 268 227 194 172 187 187 180 179 190 200 200 188 188 175 172 205 172 165 229
265 272 273 263 249 226 237 218 205 196 185 187 202 218 227 223 209 212 211 211 212 206 196 198 199 197 203 201 196 205 212 202 207 223 238 206 204 211 189 207 213 205 200 197 221 241 229 181 180 182 177 171 192 184 215 208 176 185 198 192 185 194 183
252 260 264 264 259 246 242 235 211 202 197 193 207 222 223 222 214 216 214 212 215 210 202 202 197 191 201 202 200 210 210 209 207 202 236 234 212 213 198 195 205 200 215 192 202 206 221 245 196 182 180 174 190 177 186 178 179 189 189 173 189 190 154
256 256 254 248 251 247 243 228 216 213 216 212 214 220 220 220 221 220 221 218 214 206 211 204 193 188 198 201 199 212 214 209 198 204 216 233 212 206 199 197 201 204 200 195 196 199 210 193 204 177 173 188 185 177 177 155 203 196 189 164 176 168 174
277 265 249 248 244 243 242 239 224 222 221 223 220 225 222 215 218 220 217 219 213 209 212 205 188 187 190 195 202 207 213 209 207 201 214 230 216 184 226 217 223 206 203 211 191 205 199 194 213 164 175 177 168 175 153 160 201 194 180 174 173 167 187
272 267 269 259 259 252 245 236 226 220 224 232 226 229 231 224 219 217 212 213 212 206 205 197 187 188 196 195 205 210 210 209 205 204 216 223 212 203 199 214 203 205 198 232 205 193 217 201 191 172 164 176 177 158 160 169 180 185 176 177 186 185 173
281 269 257 253 251 254 250 243 235 228 226 232 231 227 237 234 224 219 215 213 208 198 188 185 201 213 194 192 204 216 211 205 195 208 218 219 216 218 200 200 204 194 183 209 192 200 197 198 189 175 163 174 186 169 160 183 174 175 175 193 187 175 170
280 275 267 264 257 249 242 236 230 226 228 232 230 229 233 236 231 226 223 217 211 204 196 186 209 216 197 200 186 207 202 213 201 208 215 215 214 217 228 211 192 231 157 197 202 203 198 198 198 169 172 167 178 185 171 193 170 196 174 184 183 167 167
278 275 272 268 268 268 257 239 227 218 217 228 230 224 222 226 226 227 223 224 219 208 193 192 204 217 195 192 188 202 208 218 199 211 214 207 226 217 211 217 194 205 183 193 195 200 213 190 204 165 187 190 177 174 191 188 194 188 153 170 176 164 156
282 279 276 272 263 258 260 258 247 229 220 224 227 229 230 223 225 227 225 222 217 209 192 200 212 212 203 195 205 208 200 198 209 206 216 219 215 208 207 209 193 203 185 189 205 192 203 197 202 183 198 202 197 197 183 187 200 205 162 179 169 159 171
286 282 275 264 257 251 250 255 257 247 229 224 226 225 231 237 230 223 227 219 210 207 200 193 212 214 204 195 202 204 197 193 198 195 197 242 214 195 61 331 97 279 195 193 188 195 192 195 203 191 209 200 207 219 185 205 175 185 174 188 176 153 178
285 281 279 274 262 256 248 239 243 251 245 226 221 215 223 230 239 227 226 222 212 208 203 188 189 233 223 202 199 198 187 188 196 197 178 212 184 115 167 221 211 227 186 190 181 185 196 192 195 203 199 207 197 248 185 217 161 178 200 170 148 147 172
289 286 280 280 279 265 252 248 244 243 241 230 219 218 223 224 228 224 224 221 213 210 208 199 188 197 207 209 199 196 185 185 192 185 180 187 184 187 210 215 218 212 178 191 185 189 194 193 199 206 192 202 190 208 196 215 176 169 196 141 156 145 150
292 288 286 284 280 273 262 253 248 244 241 236 223 218 221 227 229 222 218 219 214 209 207 202 194 190 197 205 200 203 194 185 176 182 178 174 198 209 212 214 202 194 188 194 188 187 194 190 196 207 196 195 189 187 197 202 126 155 134 134 155 156 146
297 293 294 291 285 280 268 257 246 242 245 246 236 228 224 220 225 222 217 213 212 208 201 199 195 199 190 197 199 202 193 184 179 178 174 176 205 187 239 219 199 186 189 197 191 196 190 197 193 199 196 195 192 181 201 209 122 158 138 170 163 143 152
307 300 296 294 290 276 264 262 256 246 237 239 241 235 229 225 221 220 220 212 209 205 199 196 199 201 199 195 194 189 198 193 183 181 185 188 199 196 208 211 199 185 191 194 197 206 187 196 198 202 192 195 196 179 192 221 139 167 155 169 161 159 162
313 307 300 297 296 298 282 263 262 258 247 242 241 236 231 227 220 216 218 215 208 205 198 194 198 202 199 197 191 189 188 187 187 182 185 186 191 210 213 203 200 192 191 182 210 213 185 198 206 201 194 188 194 177 185 199 162 163 162 163 169 165 159
318 313 308 305 303 297 287 270 243 251 258 252 248 241 234 230 219 212 210 214 208 202 198 192 192 198 196 206 197 191 186 184 184 183 183 184 192 202 207 201 197 196 195 201 195 204 193 198 202 198 197 186 189 172 170 191 183 159 165 161 160 157 149
323 318 314 305 298 296 292 287 275 246 247 256 258 252 241 234 226 216 208 209 206 207 199 187 186 192 189 184 205 194 186 183 182 184 182 191 196 204 201 204 195 199 197 201 199 200 203 196 202 200 196 189 186 162 169 180 179 166 172 158 163 152 166
322 317 314 312 308 295 287 282 274 262 244 240 247 259 252 244 239 222 208 204 209 201 188 184 185 178 167 164 209 208 196 182 182 179 180 191 191 209 213 199 198 197 196 200 197 198 198 197 200 203 183 189 187 154 168 163 170 165 195 146 171 162 166
327 325 320 311 304 305 298 283 272 260 247 240 235 234 249 247 242 231 217 211 208 200 187 182 182 174 173 179 185 209 188 184 178 169 194 197 212 199 203 200 194 200 197 198 196 191 193 191 195 196 182 182 149 160 168 161 173 177 186 163 161 165 164
332 328 321 318 309 303 305 297 282 268 249 242 237 235 231 227 228 226 228 215 211 193 184 187 177 178 186 164 179 205 197 191 181 176 183 200 197 192 198 199 198 186 40 31 7 23 88 13 200 185 174 177 131 181 155 165 169 128 220 166 160 170 163
339 333 337 332 330 315 297 290 284 276 270 262 249 241 235 227 241 233 224 215 210 163 174 175 187 190 144 176 195 196 189 198 187 177 188 186 186 195 191 191 68 85 117 132 94 88 109 90 42 2 186 177 157 168 159 146 116 133 256 172 169 171 167
342 346 347 341 335 329 319 309 288 280 273 260 254 232 222 226 219 219 205 208 190 183 183 204 234 192 179 185 174 212 182 189 187 180 183 183 182 184 185 176 145 112 114 122 90 57 55 58 81 83 50 55 82 158 150 125 224 186 221 165 160 174 172
346 349 351 351 346 340 327 304 292 282 270 264 252 232 223 221 213 208 200 178 166 166 174 136 160 223 176 194 200 196 179 178 200 178 180 181 177 175 172 157 149 157 166 143 141 114 67 62 82 73 63 62 67 69 71 170 189 189 171 165 169 175 168
347 350 352 354 353 350 343 336 328 282 265 277 258 235 228 210 216 203 166 160 170 170 164 151 192 209 181 179 213 223 186 175 183 175 176 180 176 173 167 160 142 148 111 102 132 112 102 98 90 96 98 90 66 62 56 47 32 40 152 141 141 132 130
353 353 354 357 360 359 354 348 344 345 317 270 258 258 247 103 88 161 181 195 178 174 202 161 194 214 178 168 176 236 181 182 170 160 161 164 173 163 164 157 150 142 141 146 114 119 128 129 130 131 128 115 101 74 48 30 42 39 37 103 113 107 88
358 358 1 4 3 3 358 355 358 357 0 14 23 45 52 52 33 33 64 160 156 143 57 88 218 192 174 164 162 194 172 158 160 151 139 128 121 148 147 150 150 141 143 145 129 139 146 150 138 124 108 91 79 60 40 22 13 33 67 72 83 86 74
0 3 6 7 7 6 1 3 4 5 15 25 33 47 50 54 57 61 44 45 71 63 68 73 221 200 174 153 148 152 149 129 131 138 134 132 111 130 134 140 137 138 142 117 75 105 125 126 112 99 87 92 90 75 63 43 41 47 51 62 67 70 62
8 9 10 11 10 9 8 6 10 16 35 42 41 29 28 35 33 42 44 45 53 36 29 54 81 289 212 154 155 129 125 120 108 112 134 138 147 139 136 150 132 129 122 92 60 92 108 105 92 91 93 73 82 90 85 71 58 68 77 82 88 91 93
13 15 16 16 13 12 12 15 20 27 41 47 41 32 27 33 27 41 46 43 34 60 2 27 62 52 10 2 107 122 115 103 94 99 87 69 79 65 32 33 100 100 89 114 105 55 108 118 124 127 122 119 106 97 96 97 92 83 91 96 98 100 94
15 14 18 21 18 16 18 22 28 35 43 53 53 38 43 62 35 40 38 43 41 42 14 6 42 46 33 34 79 104 105 106 88 57 62 76 72 70 61 34 36 78 103 82 80 93 271 193 131 143 134 124 115 111 117 123 113 112 112 105 101 95 82
20 20 18 21 23 23 25 27 29 38 44 48 53 55 55 70 61 46 33 34 42 37 31 13 15 48 47 55 66 77 81 91 90 91 73 65 67 59 61 55 31 40 70 70 61 40 16 37 137 133 130 122 122 120 137 132 113 112 108 104 101 96 93
20 26 27 24 23 24 26 26 28 39 49 51 54 64 61 61 61 53 39 31 40 40 29 28 11 39 53 56 64 79 82 86 88 81 74 67 70 63 49 43 48 25 57 66 62 48 43 37 42 96 102 113 99 101 103 104 90 110 113 116 118 115 110
10 19 28 32 33 32 29 29 27 34 46 52 51 52 54 62 63 56 50 42 41 37 34 29 23 40 47 55 55 64 82 77 99 104 84 67 65 60 54 55 57 41 54 67 63 61 55 53 58 68 79 90 94 102 114 120 127 132 134 132 125 120 117
22 18 21 33 41 44 42 38 34 37 45 47 51 52 51 55 63 54 50 46 43 43 41 36 35 41 42 51 56 57 56 56 45 72 90 96 90 87 80 73 62 65 64 58 63 62 62 67 68 72 77 77 87 107 123 129 136 137 128 119 115 112 111
32 30 21 18 34 40 42 43 43 38 38 48 55 51 42 50 57 53 52 51 41 40 35 40 41 45 45 48 54 59 60 53 56 72 76 80 81 81 76 70 74 72 74 72 70 67 65 63 66 62 58 54 41 39 84 104 110 100 107 120 122 117 107